Location: Miles
(41.4492°N, 81.6087°W)
Time: 06:38:12
(UTC+00:00)

Explorer 11/Cluster Stage 4 - All Passes

Search period start: 19 September 2024 00:00
Search period end: 29 September 2024 00:00
Orbit: 464 x 1208 km, 28.8° (Epoch: 18 September)

Date Brightness Start Highest point End Pass type
(mag) Time Alt. Az. Time Alt. Az. Time Alt. Az.
19 Sep - 09:14:58 10° SSE 09:16:18 11° SSE 09:17:41 10° SE visible
19 Sep - 10:58:45 10° SW 11:03:16 23° SSE 11:08:30 10° ESE daylight
19 Sep - 12:45:25 10° WSW 12:50:46 27° S 12:56:51 10° SE daylight
19 Sep - 14:33:30 10° WSW 14:38:26 20° SSW 14:43:42 10° SSE daylight
20 Sep - 08:56:12 10° SSE 08:57:09 10° SSE 08:58:07 10° SE visible
20 Sep - 10:39:49 10° SW 10:44:05 22° SSE 10:49:00 10° ESE visible
20 Sep - 12:26:28 10° WSW 12:31:30 26° S 12:37:17 10° SE daylight
20 Sep - 14:14:35 10° WSW 14:19:07 18° SSW 14:24:00 10° SSE daylight
21 Sep - 08:37:53 10° SSE 08:38:00 10° SSE 08:38:07 10° SSE visible
21 Sep - 10:20:54 10° SW 10:24:53 21° S 10:29:30 10° ESE visible
21 Sep - 12:07:32 10° SW 12:12:16 24° S 12:17:42 10° SE daylight
21 Sep - 13:55:44 10° SW 13:59:49 17° SSW 14:04:14 10° SSE daylight
22 Sep - 10:02:01 10° SW 10:05:44 20° S 10:09:59 10° SE visible
22 Sep - 11:48:39 10° SW 11:53:03 23° S 11:58:05 10° SE daylight
22 Sep - 13:36:58 10° SW 13:40:32 15° SSW 13:44:23 10° SSE daylight
23 Sep - 09:43:09 10° SW 09:46:35 19° S 09:50:30 10° SE visible
23 Sep - 11:29:49 10° SW 11:33:50 21° S 11:38:27 10° SE daylight
23 Sep - 13:18:21 10° SW 13:21:16 13° SSW 13:24:23 10° S daylight
24 Sep - 09:24:19 10° SW 09:27:27 18° S 09:31:00 10° SE visible
24 Sep - 11:11:00 10° SW 11:14:39 19° S 11:18:48 10° SE daylight
24 Sep - 12:59:57 10° SW 13:02:01 12° SSW 13:04:11 10° S daylight
25 Sep - 09:05:29 10° SSW 09:08:20 17° S 09:11:32 10° SE visible
25 Sep - 10:52:14 10° SW 10:55:29 17° S 10:59:08 10° SSE visible
26 Sep - 08:46:39 10° SSW 08:49:14 16° S 08:52:03 10° SE visible
26 Sep - 10:33:32 10° SW 10:36:19 15° S 10:39:25 10° SSE visible
27 Sep - 08:27:49 10° SSW 08:30:08 15° S 08:32:37 10° SE visible
27 Sep - 10:14:53 10° SW 10:17:11 14° S 10:19:40 10° SSE visible
28 Sep - 08:09:00 10° SSW 08:11:01 14° S 08:13:11 10° SE visible
28 Sep - 09:56:22 10° SSW 09:58:03 12° S 09:59:49 10° SSE visible
